Weather in Peskovka

Russia / Kirov Oblast     59°02′47″N   52°21′33″E
temp.,
°C
wind,
m/s
gust,
m/s
humid.,
%
clouds,
%
prec.,
mm/h
press.,
hPa
HPBL,
m
16 june, wed
wed1600:00+15s249699 0.0 101276
03:00+15s279822 0.1 1012189
06:00+19ssw477675 0.0 1011363
09:00+21ssw376797 0.0 1010475
12:00+26sw25465 0.0 10091582
15:00+20w2487100 0.3 1006102
18:00+16w51096100 11.3 1007830
21:00+15wnw3998100 23.8 1008433
17 june, thu
thu1700:00+12nnw412960 0.1 1009550
03:00+10nw3109812 0.1 1011275
06:00+12nnw478976 0.0 1013485
09:00+16nnw47505 0.0 10141471
12:00+19nnw57345 0.0 10142129
15:00+20nw473580 0.0 10142552
18:00+13nw3885100 0.4 1017553
21:00+11nw41091100 1.1 1018381
18 june, fri
fri1800:00+9nw411977 0.3 1019456
03:00+7nw289810 0.3 1022196
06:00+10nnw36865 0.0 1023330
09:00+16nw364518 0.0 10231824
12:00+19nw463650 0.0 10222159
15:00+20nw4634100 0.0 10222132
18:00+18wnw255689 0.0 1022239
21:00+14wsw2365100 0.0 102254
19 june, sat
sat1900:00+12sw3107267 0.0 1022196
03:00+14sw41464100 0.0 1020418
06:00+17wsw4126913 0.0 1019420
09:00+23w695276 0.0 10171087
12:00+27w711390 0.0 10152386
15:00+28wnw612400 0.0 10132361
18:00+25wnw61249100 0.0 10141914
21:00+21nw5116798 0.1 10151039
20 june, sun
sun2000:00+19nnw59630 0.0 1018809
03:00+11nnw39700 0.0 1021291
06:00+13n36540 0.0 1023585
09:00+17nnw46340 0.0 10241057
12:00+20nnw35291 0.0 10231443
15:00+22nw35295 0.0 10221618
18:00+20s10532 0.0 102113
21:00+15sse226099 0.0 102128